owner,sensor,date,latitude,longitude,sea_surface_height_above_sea_level,qcFlag 
TCOON,ioos:station:TCOON:031:1,2016-02-01T15:42:00Z,28.4073,-96.7122,0.499,1111122 
TCOON,ioos:station:TCOON:031:1,2016-02-01T16:48:00Z,28.4073,-96.7122,0.477,1111122 
TCOON,ioos:station:TCOON:031:1,2016-02-01T17:42:00Z,28.4073,-96.7122,0.475,1111122 
TCOON,ioos:station:TCOON:031:1,2016-02-01T18:42:00Z,28.4073,-96.7122,0.479,1111122 
TCOON,ioos:station:TCOON:031:1,2016-02-01T19:36:00Z,28.4073,-96.7122,0.492,1111122 
TCOON,ioos:station:TCOON:031:1,2016-02-01T20:36:00Z,28.4073,-96.7122,0.499,1111122 
TCOON,ioos:station:TCOON:031:1,2016-02-01T21:30:00Z,28.4073,-96.7122,0.497,1111122 
TCOON,ioos:station:TCOON:031:1,2016-02-01T22:30:00Z,28.4073,-96.7122,0.513,1111122 
TCOON,ioos:station:TCOON:031:1,2016-02-01T23:30:00Z,28.4073,-96.7122,0.512,1111122 
TCOON,ioos:station:TCOON:031:1,2016-02-02T00:30:00Z,28.4073,-96.7122,0.512,1111122 
TCOON,ioos:station:TCOON:031:1,2016-02-02T01:30:00Z,28.4073,-96.7122,0.516,1111122 
TCOON,ioos:station:TCOON:031:1,2016-02-02T02:30:00Z,28.4073,-96.7122,0.57,1111122 
TCOON,ioos:station:TCOON:031:1,2016-02-02T03:30:00Z,28.4073,-96.7122,0.651,1111122 
TCOON,ioos:station:TCOON:031:1,2016-02-02T04:30:00Z,28.4073,-96.7122,0.616,1111122 
TCOON,ioos:station:TCOON:031:1,2016-02-02T05:30:00Z,28.4073,-96.7122,0.55,1111122 
TCOON,ioos:station:TCOON:031:1,2016-02-02T06:30:00Z,28.4073,-96.7122,0.568,1111122 
TCOON,ioos:station:TCOON:031:1,2016-02-02T07:30:00Z,28.4073,-96.7122,0.607,1111122 
TCOON,ioos:station:TCOON:031:1,2016-02-02T08:30:00Z,28.4073,-96.7122,0.636,1111122 
TCOON,ioos:station:TCOON:031:1,2016-02-02T09:42:00Z,28.4073,-96.7122,0.477,1111122 
TCOON,ioos:station:TCOON:031:1,2016-02-02T10:30:00Z,28.4073,-96.7122,0.518,1111122 
TCOON,ioos:station:TCOON:031:1,2016-02-02T11:30:00Z,28.4073,-96.7122,0.533,1111122 
TCOON,ioos:station:TCOON:031:1,2016-02-02T12:30:00Z,28.4073,-96.7122,0.56,1111122 
TCOON,ioos:station:TCOON:031:1,2016-02-02T13:30:00Z,28.4073,-96.7122,0.507,1111122 
TCOON,ioos:station:TCOON:031:1,2016-02-02T14:30:00Z,28.4073,-96.7122,0.403,1111122 
TCOON,ioos:station:TCOON:031:1,2016-02-02T15:30:00Z,28.4073,-96.7122,0.4,1111122 
TCOON,ioos:station:TCOON:031:1,2016-02-02T18:42:00Z,28.4073,-96.7122,0.45,1111122 
TCOON,ioos:station:TCOON:031:1,2016-02-02T19:24:00Z,28.4073,-96.7122,0.475,1111122 
TCOON,ioos:station:TCOON:031:1,2016-02-02T20:30:00Z,28.4073,-96.7122,0.538,1111122 
TCOON,ioos:station:TCOON:031:1,2016-02-02T21:30:00Z,28.4073,-96.7122,0.546,1111122 
TCOON,ioos:station:TCOON:031:1,2016-02-02T22:24:00Z,28.4073,-96.7122,0.56,1111122 
TCOON,ioos:station:TCOON:031:1,2016-02-02T23:24:00Z,28.4073,-96.7122,0.554,1111122 
TCOON,ioos:station:TCOON:031:1,2016-02-03T00:36:00Z,28.4073,-96.7122,0.577,1111122 
TCOON,ioos:station:TCOON:031:1,2016-02-03T01:24:00Z,28.4073,-96.7122,0.57,1111122 
TCOON,ioos:station:TCOON:031:1,2016-02-03T02:24:00Z,28.4073,-96.7122,0.572,1111122 
TCOON,ioos:station:TCOON:031:1,2016-02-03T03:24:00Z,28.4073,-96.7122,0.566,1111122 
TCOON,ioos:station:TCOON:031:1,2016-02-03T04:30:00Z,28.4073,-96.7122,0.582,1111122 
TCOON,ioos:station:TCOON:031:1,2016-02-03T05:24:00Z,28.4073,-96.7122,0.591,1111122 
TCOON,ioos:station:TCOON:031:1,2016-02-03T06:30:00Z,28.4073,-96.7122,0.602,1111122 
TCOON,ioos:station:TCOON:031:1,2016-02-03T07:24:00Z,28.4073,-96.7122,0.598,1111122 
TCOON,ioos:station:TCOON:031:1,2016-02-03T08:30:00Z,28.4073,-96.7122,0.599,1111122 
TCOON,ioos:station:TCOON:031:1,2016-02-03T09:42:00Z,28.4073,-96.7122,0.593,1111122 
TCOON,ioos:station:TCOON:031:1,2016-02-03T10:30:00Z,28.4073,-96.7122,0.576,1111122 
TCOON,ioos:station:TCOON:031:1,2016-02-03T11:24:00Z,28.4073,-96.7122,0.517,1111122 
TCOON,ioos:station:TCOON:031:1,2016-02-03T12:24:00Z,28.4073,-96.7122,0.505,1111122 
TCOON,ioos:station:TCOON:031:1,2016-02-03T13:24:00Z,28.4073,-96.7122,0.483,1111122 
TCOON,ioos:station:TCOON:031:1,2016-02-03T14:30:00Z,28.4073,-96.7122,0.477,1111122 
TCOON,ioos:station:TCOON:031:1,2016-02-03T15:30:00Z,28.4073,-96.7122,0.472,1111122 
TCOON,ioos:station:TCOON:031:1,2016-02-03T16:30:00Z,28.4073,-96.7122,0.511,1111122 
TCOON,ioos:station:TCOON:031:1,2016-02-03T17:24:00Z,28.4073,-96.7122,0.535,1111122 
TCOON,ioos:station:TCOON:031:1,2016-02-03T18:24:00Z,28.4073,-96.7122,0.559,1111122 
TCOON,ioos:station:TCOON:031:1,2016-02-03T22:48:00Z,28.4073,-96.7122,0.542,1111122 
TCOON,ioos:station:TCOON:031:1,2016-02-03T23:30:00Z,28.4073,-96.7122,0.536,1111122 
TCOON,ioos:station:TCOON:031:1,2016-02-04T03:36:00Z,28.4073,-96.7122,0.539,1111122 
TCOON,ioos:station:TCOON:031:1,2016-02-04T05:30:00Z,28.4073,-96.7122,0.561,1111122 
TCOON,ioos:station:TCOON:031:1,2016-02-04T06:24:00Z,28.4073,-96.7122,0.552,1111122 
TCOON,ioos:station:TCOON:031:1,2016-02-04T10:18:00Z,28.4073,-96.7122,0.561,1111122 
TCOON,ioos:station:TCOON:031:1,2016-02-04T12:30:00Z,28.4073,-96.7122,0.553,1111122 
TCOON,ioos:station:TCOON:031:1,2016-02-04T18:30:00Z,28.4073,-96.7122,0.506,1111122 
TCOON,ioos:station:TCOON:031:1,2016-02-05T00:24:00Z,28.4073,-96.7122,0.506,1111122 
TCOON,ioos:station:TCOON:031:1,2016-02-05T05:30:00Z,28.4073,-96.7122,0.521,1111122 
TCOON,ioos:station:TCOON:031:1,2016-02-05T12:36:00Z,28.4073,-96.7122,0.508,1111122 
TCOON,ioos:station:TCOON:031:1,2016-02-05T19:30:00Z,28.4073,-96.7122,0.46,1111122 
TCOON,ioos:station:TCOON:031:1,2016-02-06T01:06:00Z,28.4073,-96.7122,0.5,1111122 
TCOON,ioos:station:TCOON:031:1,2016-02-06T01:24:00Z,28.4073,-96.7122,0.492,1111122 
TCOON,ioos:station:TCOON:031:1,2016-02-06T02:18:00Z,28.4073,-96.7122,0.485,1111122 
TCOON,ioos:station:TCOON:031:1,2016-02-06T05:24:00Z,28.4073,-96.7122,0.528,1111122 
TCOON,ioos:station:TCOON:031:1,2016-02-06T14:24:00Z,28.4073,-96.7122,0.528,1111122 
TCOON,ioos:station:TCOON:031:1,2016-02-06T17:30:00Z,28.4073,-96.7122,0.448,1111122 
TCOON,ioos:station:TCOON:031:1,2016-02-06T18:36:00Z,28.4073,-96.7122,0.426,1111122 
TCOON,ioos:station:TCOON:031:1,2016-02-06T19:24:00Z,28.4073,-96.7122,0.437,1111122 
TCOON,ioos:station:TCOON:031:1,2016-02-06T20:36:00Z,28.4073,-96.7122,0.418,1111122 
TCOON,ioos:station:TCOON:031:1,2016-02-07T00:18:00Z,28.4073,-96.7122,0.413,1111122 
TCOON,ioos:station:TCOON:031:1,2016-02-07T01:24:00Z,28.4073,-96.7122,0.45,1111122 
TCOON,ioos:station:TCOON:031:1,2016-02-07T02:18:00Z,28.4073,-96.7122,0.462,1111122 
TCOON,ioos:station:TCOON:031:1,2016-02-07T03:18:00Z,28.4073,-96.7122,0.449,1111122 
TCOON,ioos:station:TCOON:031:1,2016-02-07T05:24:00Z,28.4073,-96.7122,0.453,1111122 
TCOON,ioos:station:TCOON:031:1,2016-02-07T07:36:00Z,28.4073,-96.7122,0.482,1111122 
TCOON,ioos:station:TCOON:031:1,2016-02-07T10:00:00Z,28.4073,-96.7122,0.47,1111122 
TCOON,ioos:station:TCOON:031:1,2016-02-07T11:24:00Z,28.4073,-96.7122,0.475,1111122 
TCOON,ioos:station:TCOON:031:1,2016-02-07T13:24:00Z,28.4073,-96.7122,0.461,1111122 
TCOON,ioos:station:TCOON:031:1,2016-02-07T14:30:00Z,28.4073,-96.7122,0.465,1111122 
TCOON,ioos:station:TCOON:031:1,2016-02-07T15:18:00Z,28.4073,-96.7122,0.457,1111122 
TCOON,ioos:station:TCOON:031:1,2016-02-07T16:18:00Z,28.4073,-96.7122,0.45,1111122 
TCOON,ioos:station:TCOON:031:1,2016-02-07T17:18:00Z,28.4073,-96.7122,0.445,1111122 
TCOON,ioos:station:TCOON:031:1,2016-02-07T18:18:00Z,28.4073,-96.7122,0.433,1111122 
TCOON,ioos:station:TCOON:031:1,2016-02-07T19:18:00Z,28.4073,-96.7122,0.444,1111122 
TCOON,ioos:station:TCOON:031:1,2016-02-07T20:18:00Z,28.4073,-96.7122,0.424,1111122 
TCOON,ioos:station:TCOON:031:1,2016-02-07T21:18:00Z,28.4073,-96.7122,0.419,1111122 
TCOON,ioos:station:TCOON:031:1,2016-02-07T22:18:00Z,28.4073,-96.7122,0.427,1111122 
TCOON,ioos:station:TCOON:031:1,2016-02-07T23:18:00Z,28.4073,-96.7122,0.423,1111122 
TCOON,ioos:station:TCOON:031:1,2016-02-08T00:18:00Z,28.4073,-96.7122,0.404,1111122 
TCOON,ioos:station:TCOON:031:1,2016-02-08T01:18:00Z,28.4073,-96.7122,0.397,1111122 
TCOON,ioos:station:TCOON:031:1,2016-02-08T02:18:00Z,28.4073,-96.7122,0.402,1111122 
TCOON,ioos:station:TCOON:031:1,2016-02-08T03:18:00Z,28.4073,-96.7122,0.408,1111122 
TCOON,ioos:station:TCOON:031:1,2016-02-08T04:18:00Z,28.4073,-96.7122,0.424,1111122 
TCOON,ioos:station:TCOON:031:1,2016-02-08T05:18:00Z,28.4073,-96.7122,0.427,1111122 
TCOON,ioos:station:TCOON:031:1,2016-02-08T06:18:00Z,28.4073,-96.7122,0.438,1111122 
TCOON,ioos:station:TCOON:031:1,2016-02-08T07:18:00Z,28.4073,-96.7122,0.451,1111122 
TCOON,ioos:station:TCOON:031:1,2016-02-08T08:18:00Z,28.4073,-96.7122,0.443,1111122 
TCOON,ioos:station:TCOON:031:1,2016-02-08T09:42:00Z,28.4073,-96.7122,0.448,1111122 
TCOON,ioos:station:TCOON:031:1,2016-02-08T10:18:00Z,28.4073,-96.7122,0.459,1111122 
TCOON,ioos:station:TCOON:031:1,2016-02-08T11:18:00Z,28.4073,-96.7122,0.439,1111122 
TCOON,ioos:station:TCOON:031:1,2016-02-08T12:18:00Z,28.4073,-96.7122,0.398,1111122 
TCOON,ioos:station:TCOON:031:1,2016-02-08T13:18:00Z,28.4073,-96.7122,0.457,1111122 
TCOON,ioos:station:TCOON:031:1,2016-02-08T14:18:00Z,28.4073,-96.7122,0.434,1111122 
TCOON,ioos:station:TCOON:031:1,2016-02-08T15:24:00Z,28.4073,-96.7122,0.355,1111122 
TCOON,ioos:station:TCOON:031:1,2016-02-08T16:24:00Z,28.4073,-96.7122,0.305,1111122 
TCOON,ioos:station:TCOON:031:1,2016-02-08T17:24:00Z,28.4073,-96.7122,0.348,1111122 
TCOON,ioos:station:TCOON:031:1,2016-02-08T18:18:00Z,28.4073,-96.7122,0.382,1111122 
TCOON,ioos:station:TCOON:031:1,2016-02-08T19:18:00Z,28.4073,-96.7122,0.431,1111122 
TCOON,ioos:station:TCOON:031:1,2016-02-08T20:18:00Z,28.4073,-96.7122,0.411,1111122 
TCOON,ioos:station:TCOON:031:1,2016-02-08T21:18:00Z,28.4073,-96.7122,0.4,1111122 
TCOON,ioos:station:TCOON:031:1,2016-02-08T22:18:00Z,28.4073,-96.7122,0.399,1111122 
TCOON,ioos:station:TCOON:031:1,2016-02-08T23:18:00Z,28.4073,-96.7122,0.39,1111122 
TCOON,ioos:station:TCOON:031:1,2016-02-09T00:18:00Z,28.4073,-96.7122,0.407,1111122 
TCOON,ioos:station:TCOON:031:1,2016-02-09T01:18:00Z,28.4073,-96.7122,0.398,1111122 
TCOON,ioos:station:TCOON:031:1,2016-02-09T02:18:00Z,28.4073,-96.7122,0.414,1111122 
TCOON,ioos:station:TCOON:031:1,2016-02-09T03:18:00Z,28.4073,-96.7122,0.392,1111122 
TCOON,ioos:station:TCOON:031:1,2016-02-09T04:18:00Z,28.4073,-96.7122,0.38,1111122 
TCOON,ioos:station:TCOON:031:1,2016-02-09T05:18:00Z,28.4073,-96.7122,0.369,1111122 
TCOON,ioos:station:TCOON:031:1,2016-02-09T06:18:00Z,28.4073,-96.7122,0.36,1111122 
TCOON,ioos:station:TCOON:031:1,2016-02-09T07:18:00Z,28.4073,-96.7122,0.365,1111122 
TCOON,ioos:station:TCOON:031:1,2016-02-09T08:18:00Z,28.4073,-96.7122,0.36,1111122 
TCOON,ioos:station:TCOON:031:1,2016-02-09T09:36:00Z,28.4073,-96.7122,0.355,1111122 
TCOON,ioos:station:TCOON:031:1,2016-02-09T10:18:00Z,28.4073,-96.7122,0.345,1111122 
TCOON,ioos:station:TCOON:031:1,2016-02-09T11:18:00Z,28.4073,-96.7122,0.336,1111122 
TCOON,ioos:station:TCOON:031:1,2016-02-09T12:18:00Z,28.4073,-96.7122,0.317,1111122 
TCOON,ioos:station:TCOON:031:1,2016-02-09T13:18:00Z,28.4073,-96.7122,0.308,1111122 
TCOON,ioos:station:TCOON:031:1,2016-02-09T14:30:00Z,28.4073,-96.7122,0.298,1111122 
TCOON,ioos:station:TCOON:031:1,2016-02-09T15:18:00Z,28.4073,-96.7122,0.301,1111122 
TCOON,ioos:station:TCOON:031:1,2016-02-09T16:24:00Z,28.4073,-96.7122,0.28,1111122 
TCOON,ioos:station:TCOON:031:1,2016-02-09T17:18:00Z,28.4073,-96.7122,0.29,1111122 
TCOON,ioos:station:TCOON:031:1,2016-02-09T18:18:00Z,28.4073,-96.7122,0.303,1111122 
TCOON,ioos:station:TCOON:031:1,2016-02-09T19:18:00Z,28.4073,-96.7122,0.282,1111122 
TCOON,ioos:station:TCOON:031:1,2016-02-09T20:18:00Z,28.4073,-96.7122,0.285,1111122 
TCOON,ioos:station:TCOON:031:1,2016-02-09T21:24:00Z,28.4073,-96.7122,0.269,1111122 
TCOON,ioos:station:TCOON:031:1,2016-02-09T22:24:00Z,28.4073,-96.7122,0.251,1111122 
TCOON,ioos:station:TCOON:031:1,2016-02-09T23:18:00Z,28.4073,-96.7122,0.266,1111122 
TCOON,ioos:station:TCOON:031:1,2016-02-10T00:18:00Z,28.4073,-96.7122,0.299,1111122 
TCOON,ioos:station:TCOON:031:1,2016-02-10T01:18:00Z,28.4073,-96.7122,0.281,1111122 
TCOON,ioos:station:TCOON:031:1,2016-02-10T02:18:00Z,28.4073,-96.7122,0.269,1111122 
TCOON,ioos:station:TCOON:031:1,2016-02-10T03:18:00Z,28.4073,-96.7122,0.25,1111122 
TCOON,ioos:station:TCOON:031:1,2016-02-10T04:18:00Z,28.4073,-96.7122,0.261,1111122 
TCOON,ioos:station:TCOON:031:1,2016-02-10T05:24:00Z,28.4073,-96.7122,0.253,1111122 
TCOON,ioos:station:TCOON:031:1,2016-02-10T06:24:00Z,28.4073,-96.7122,0.258,1111122 
TCOON,ioos:station:TCOON:031:1,2016-02-10T07:18:00Z,28.4073,-96.7122,0.239,1111122 
TCOON,ioos:station:TCOON:031:1,2016-02-10T08:18:00Z,28.4073,-96.7122,0.233,1111122 
TCOON,ioos:station:TCOON:031:1,2016-02-10T09:36:00Z,28.4073,-96.7122,0.195,1111122 
TCOON,ioos:station:TCOON:031:1,2016-02-10T10:18:00Z,28.4073,-96.7122,0.187,1111122 
TCOON,ioos:station:TCOON:031:1,2016-02-10T11:18:00Z,28.4073,-96.7122,0.169,1111122 
TCOON,ioos:station:TCOON:031:1,2016-02-10T12:18:00Z,28.4073,-96.7122,0.197,1111122 
TCOON,ioos:station:TCOON:031:1,2016-02-10T13:18:00Z,28.4073,-96.7122,0.223,1111122 
TCOON,ioos:station:TCOON:031:1,2016-02-10T14:18:00Z,28.4073,-96.7122,0.233,1111122 
TCOON,ioos:station:TCOON:031:1,2016-02-10T15:24:00Z,28.4073,-96.7122,0.23,1111122 
TCOON,ioos:station:TCOON:031:1,2016-02-10T16:18:00Z,28.4073,-96.7122,0.213,1111122 
TCOON,ioos:station:TCOON:031:1,2016-02-10T17:18:00Z,28.4073,-96.7122,0.226,1111122 
TCOON,ioos:station:TCOON:031:1,2016-02-10T18:18:00Z,28.4073,-96.7122,0.222,1111122 
TCOON,ioos:station:TCOON:031:1,2016-02-10T19:24:00Z,28.4073,-96.7122,0.231,1111122 
TCOON,ioos:station:TCOON:031:1,2016-02-10T20:18:00Z,28.4073,-96.7122,0.216,1111122 
TCOON,ioos:station:TCOON:031:1,2016-02-10T21:24:00Z,28.4073,-96.7122,0.226,1111122 
TCOON,ioos:station:TCOON:031:1,2016-02-10T22:24:00Z,28.4073,-96.7122,0.21,1111122 
TCOON,ioos:station:TCOON:031:1,2016-02-10T23:24:00Z,28.4073,-96.7122,0.204,1111122 
TCOON,ioos:station:TCOON:031:1,2016-02-11T00:24:00Z,28.4073,-96.7122,0.199,1111122 
TCOON,ioos:station:TCOON:031:1,2016-02-11T01:18:00Z,28.4073,-96.7122,0.213,1111122 
TCOON,ioos:station:TCOON:031:1,2016-02-11T02:18:00Z,28.4073,-96.7122,0.218,1111122 
TCOON,ioos:station:TCOON:031:1,2016-02-11T03:18:00Z,28.4073,-96.7122,0.211,1111122 
TCOON,ioos:station:TCOON:031:1,2016-02-11T04:18:00Z,28.4073,-96.7122,0.217,1111122 
TCOON,ioos:station:TCOON:031:1,2016-02-11T05:18:00Z,28.4073,-96.7122,0.237,1111122 
TCOON,ioos:station:TCOON:031:1,2016-02-11T06:18:00Z,28.4073,-96.7122,0.234,1111122 
TCOON,ioos:station:TCOON:031:1,2016-02-11T07:18:00Z,28.4073,-96.7122,0.236,1111122 
TCOON,ioos:station:TCOON:031:1,2016-02-11T08:18:00Z,28.4073,-96.7122,0.215,1111122 
TCOON,ioos:station:TCOON:031:1,2016-02-11T09:42:00Z,28.4073,-96.7122,0.197,1111122 
TCOON,ioos:station:TCOON:031:1,2016-02-11T10:24:00Z,28.4073,-96.7122,0.178,1111122 
TCOON,ioos:station:TCOON:031:1,2016-02-11T11:24:00Z,28.4073,-96.7122,0.16,1111122 
TCOON,ioos:station:TCOON:031:1,2016-02-11T12:24:00Z,28.4073,-96.7122,0.159,1111122 
TCOON,ioos:station:TCOON:031:1,2016-02-11T13:24:00Z,28.4073,-96.7122,0.158,1111122 
TCOON,ioos:station:TCOON:031:1,2016-02-11T14:30:00Z,28.4073,-96.7122,0.17,1111122 
TCOON,ioos:station:TCOON:031:1,2016-02-11T15:30:00Z,28.4073,-96.7122,0.176,1111122 
TCOON,ioos:station:TCOON:031:1,2016-02-11T16:24:00Z,28.4073,-96.7122,0.214,1111122 
TCOON,ioos:station:TCOON:031:1,2016-02-11T17:18:00Z,28.4073,-96.7122,0.257,1111122 
TCOON,ioos:station:TCOON:031:1,2016-02-11T18:18:00Z,28.4073,-96.7122,0.255,1111122 
TCOON,ioos:station:TCOON:031:1,2016-02-11T19:24:00Z,28.4073,-96.7122,0.247,1111122 
TCOON,ioos:station:TCOON:031:1,2016-02-11T20:18:00Z,28.4073,-96.7122,0.216,1111122 
TCOON,ioos:station:TCOON:031:1,2016-02-11T21:18:00Z,28.4073,-96.7122,0.225,1111122 
TCOON,ioos:station:TCOON:031:1,2016-02-11T22:18:00Z,28.4073,-96.7122,0.224,1111122 
TCOON,ioos:station:TCOON:031:1,2016-02-11T23:18:00Z,28.4073,-96.7122,0.241,1111122 
TCOON,ioos:station:TCOON:031:1,2016-02-12T00:18:00Z,28.4073,-96.7122,0.21,1111122 
TCOON,ioos:station:TCOON:031:1,2016-02-12T01:18:00Z,28.4073,-96.7122,0.19,1111122 
TCOON,ioos:station:TCOON:031:1,2016-02-12T02:18:00Z,28.4073,-96.7122,0.162,1111122 
TCOON,ioos:station:TCOON:031:1,2016-02-12T03:18:00Z,28.4073,-96.7122,0.175,1111122 
TCOON,ioos:station:TCOON:031:1,2016-02-12T04:18:00Z,28.4073,-96.7122,0.192,1111122 
TCOON,ioos:station:TCOON:031:1,2016-02-12T05:18:00Z,28.4073,-96.7122,0.187,1111122 
TCOON,ioos:station:TCOON:031:1,2016-02-12T06:18:00Z,28.4073,-96.7122,0.181,1111122 
TCOON,ioos:station:TCOON:031:1,2016-02-12T07:18:00Z,28.4073,-96.7122,0.175,1111122 
TCOON,ioos:station:TCOON:031:1,2016-02-12T08:18:00Z,28.4073,-96.7122,0.182,1111122 
TCOON,ioos:station:TCOON:031:1,2016-02-12T09:36:00Z,28.4073,-96.7122,0.176,1111122 
TCOON,ioos:station:TCOON:031:1,2016-02-12T10:18:00Z,28.4073,-96.7122,0.175,1111122 
TCOON,ioos:station:TCOON:031:1,2016-02-12T11:18:00Z,28.4073,-96.7122,0.182,1111122 
TCOON,ioos:station:TCOON:031:1,2016-02-12T12:12:00Z,28.4073,-96.7122,0.187,1111122 
TCOON,ioos:station:TCOON:031:1,2016-02-12T13:18:00Z,28.4073,-96.7122,0.191,1111122 
TCOON,ioos:station:TCOON:031:1,2016-02-12T14:18:00Z,28.4073,-96.7122,0.2,1111122 
TCOON,ioos:station:TCOON:031:1,2016-02-12T15:18:00Z,28.4073,-96.7122,0.207,1111122 
TCOON,ioos:station:TCOON:031:1,2016-02-12T16:18:00Z,28.4073,-96.7122,0.21,1111122 
TCOON,ioos:station:TCOON:031:1,2016-02-12T17:18:00Z,28.4073,-96.7122,0.229,1111122 
TCOON,ioos:station:TCOON:031:1,2016-02-12T18:18:00Z,28.4073,-96.7122,0.24,1111122 
TCOON,ioos:station:TCOON:031:1,2016-02-12T19:18:00Z,28.4073,-96.7122,0.234,1111122 
TCOON,ioos:station:TCOON:031:1,2016-02-12T20:12:00Z,28.4073,-96.7122,0.224,1111122 
TCOON,ioos:station:TCOON:031:1,2016-02-12T21:18:00Z,28.4073,-96.7122,0.207,1111122 
TCOON,ioos:station:TCOON:031:1,2016-02-12T22:18:00Z,28.4073,-96.7122,0.199,1111122 
TCOON,ioos:station:TCOON:031:1,2016-02-12T23:18:00Z,28.4073,-96.7122,0.197,1111122 
TCOON,ioos:station:TCOON:031:1,2016-02-13T00:18:00Z,28.4073,-96.7122,0.184,1111122 
TCOON,ioos:station:TCOON:031:1,2016-02-13T01:18:00Z,28.4073,-96.7122,0.172,1111122 
TCOON,ioos:station:TCOON:031:1,2016-02-13T02:18:00Z,28.4073,-96.7122,0.179,1111122 
TCOON,ioos:station:TCOON:031:1,2016-02-13T03:18:00Z,28.4073,-96.7122,0.185,1111122 
TCOON,ioos:station:TCOON:031:1,2016-02-13T04:18:00Z,28.4073,-96.7122,0.206,1111122 
TCOON,ioos:station:TCOON:031:1,2016-02-13T05:12:00Z,28.4073,-96.7122,0.205,1111122 
TCOON,ioos:station:TCOON:031:1,2016-02-13T06:18:00Z,28.4073,-96.7122,0.207,1111122 
TCOON,ioos:station:TCOON:031:1,2016-02-13T07:18:00Z,28.4073,-96.7122,0.193,1111122 
TCOON,ioos:station:TCOON:031:1,2016-02-13T08:18:00Z,28.4073,-96.7122,0.186,1111122 
TCOON,ioos:station:TCOON:031:1,2016-02-13T09:24:00Z,28.4073,-96.7122,0.189,1111122 
TCOON,ioos:station:TCOON:031:1,2016-02-13T10:18:00Z,28.4073,-96.7122,0.186,1111122 
TCOON,ioos:station:TCOON:031:1,2016-02-13T11:18:00Z,28.4073,-96.7122,0.184,1111122 
TCOON,ioos:station:TCOON:031:1,2016-02-13T12:18:00Z,28.4073,-96.7122,0.176,1111122 
TCOON,ioos:station:TCOON:031:1,2016-02-13T13:18:00Z,28.4073,-96.7122,0.175,1111122 
TCOON,ioos:station:TCOON:031:1,2016-02-13T14:18:00Z,28.4073,-96.7122,0.16,1111122 
TCOON,ioos:station:TCOON:031:1,2016-02-13T15:18:00Z,28.4073,-96.7122,0.155,1111122 
TCOON,ioos:station:TCOON:031:1,2016-02-13T16:18:00Z,28.4073,-96.7122,0.178,1111122 
TCOON,ioos:station:TCOON:031:1,2016-02-13T17:18:00Z,28.4073,-96.7122,0.206,1111122 
TCOON,ioos:station:TCOON:031:1,2016-02-13T18:18:00Z,28.4073,-96.7122,0.225,1111122 
TCOON,ioos:station:TCOON:031:1,2016-02-13T19:18:00Z,28.4073,-96.7122,0.225,1111122 
TCOON,ioos:station:TCOON:031:1,2016-02-13T20:18:00Z,28.4073,-96.7122,0.225,1111122 
TCOON,ioos:station:TCOON:031:1,2016-02-13T21:18:00Z,28.4073,-96.7122,0.245,1111122 
TCOON,ioos:station:TCOON:031:1,2016-02-13T22:18:00Z,28.4073,-96.7122,0.244,1111122 
TCOON,ioos:station:TCOON:031:1,2016-02-13T23:18:00Z,28.4073,-96.7122,0.257,1111122 
TCOON,ioos:station:TCOON:031:1,2016-02-14T00:18:00Z,28.4073,-96.7122,0.249,1111122 
TCOON,ioos:station:TCOON:031:1,2016-02-14T01:18:00Z,28.4073,-96.7122,0.251,1111122 
TCOON,ioos:station:TCOON:031:1,2016-02-14T02:18:00Z,28.4073,-96.7122,0.259,1111122 
TCOON,ioos:station:TCOON:031:1,2016-02-14T03:18:00Z,28.4073,-96.7122,0.271,1111122 
TCOON,ioos:station:TCOON:031:1,2016-02-14T04:18:00Z,28.4073,-96.7122,0.28,1111122 
TCOON,ioos:station:TCOON:031:1,2016-02-14T05:18:00Z,28.4073,-96.7122,0.277,1111122 
TCOON,ioos:station:TCOON:031:1,2016-02-14T06:18:00Z,28.4073,-96.7122,0.285,1111122 
TCOON,ioos:station:TCOON:031:1,2016-02-14T07:18:00Z,28.4073,-96.7122,0.3,1111122 
TCOON,ioos:station:TCOON:031:1,2016-02-14T08:18:00Z,28.4073,-96.7122,0.317,1111122 
TCOON,ioos:station:TCOON:031:1,2016-02-14T09:36:00Z,28.4073,-96.7122,0.301,1111122 
TCOON,ioos:station:TCOON:031:1,2016-02-14T10:18:00Z,28.4073,-96.7122,0.296,1111122 
TCOON,ioos:station:TCOON:031:1,2016-02-14T11:18:00Z,28.4073,-96.7122,0.3,1111122 
TCOON,ioos:station:TCOON:031:1,2016-02-14T12:18:00Z,28.4073,-96.7122,0.287,1111122 
TCOON,ioos:station:TCOON:031:1,2016-02-14T13:18:00Z,28.4073,-96.7122,0.288,1111122 
TCOON,ioos:station:TCOON:031:1,2016-02-14T14:18:00Z,28.4073,-96.7122,0.291,1111122 
TCOON,ioos:station:TCOON:031:1,2016-02-14T15:18:00Z,28.4073,-96.7122,0.312,1111122 
TCOON,ioos:station:TCOON:031:1,2016-02-14T16:18:00Z,28.4073,-96.7122,0.342,1111122 
TCOON,ioos:station:TCOON:031:1,2016-02-14T17:18:00Z,28.4073,-96.7122,0.36,1111122 
TCOON,ioos:station:TCOON:031:1,2016-02-14T18:18:00Z,28.4073,-96.7122,0.379,1111122 
TCOON,ioos:station:TCOON:031:1,2016-02-14T19:18:00Z,28.4073,-96.7122,0.396,1111122 
TCOON,ioos:station:TCOON:031:1,2016-02-14T20:18:00Z,28.4073,-96.7122,0.418,1111122 
TCOON,ioos:station:TCOON:031:1,2016-02-14T21:18:00Z,28.4073,-96.7122,0.398,1111122 
TCOON,ioos:station:TCOON:031:1,2016-02-14T22:24:00Z,28.4073,-96.7122,0.414,1111122 
TCOON,ioos:station:TCOON:031:1,2016-02-14T23:18:00Z,28.4073,-96.7122,0.417,1111122 
TCOON,ioos:station:TCOON:031:1,2016-02-15T00:18:00Z,28.4073,-96.7122,0.399,1111122 
TCOON,ioos:station:TCOON:031:1,2016-02-15T01:18:00Z,28.4073,-96.7122,0.42,1111122 
TCOON,ioos:station:TCOON:031:1,2016-02-15T02:18:00Z,28.4073,-96.7122,0.453,1111122 
TCOON,ioos:station:TCOON:031:1,2016-02-15T03:18:00Z,28.4073,-96.7122,0.478,1111122 
TCOON,ioos:station:TCOON:031:1,2016-02-15T04:18:00Z,28.4073,-96.7122,0.468,1111122 
TCOON,ioos:station:TCOON:031:1,2016-02-15T05:18:00Z,28.4073,-96.7122,0.468,1111122 
TCOON,ioos:station:TCOON:031:1,2016-02-15T06:18:00Z,28.4073,-96.7122,0.467,1111122 
TCOON,ioos:station:TCOON:031:1,2016-02-15T07:18:00Z,28.4073,-96.7122,0.47,1111122 
TCOON,ioos:station:TCOON:031:1,2016-02-15T08:18:00Z,28.4073,-96.7122,0.481,1111122 
TCOON,ioos:station:TCOON:031:1,2016-02-15T09:30:00Z,28.4073,-96.7122,0.497,1111122 
TCOON,ioos:station:TCOON:031:1,2016-02-15T10:18:00Z,28.4073,-96.7122,0.491,1111122 
TCOON,ioos:station:TCOON:031:1,2016-02-15T11:18:00Z,28.4073,-96.7122,0.506,1111122 
TCOON,ioos:station:TCOON:031:1,2016-02-15T12:18:00Z,28.4073,-96.7122,0.484,1111122 
TCOON,ioos:station:TCOON:031:1,2016-02-15T13:18:00Z,28.4073,-96.7122,0.473,1111122 
TCOON,ioos:station:TCOON:031:1,2016-02-15T14:18:00Z,28.4073,-96.7122,0.457,1111122 
TCOON,ioos:station:TCOON:031:1,2016-02-15T15:18:00Z,28.4073,-96.7122,0.459,1111122 
TCOON,ioos:station:TCOON:031:1,2016-02-15T16:18:00Z,28.4073,-96.7122,0.459,1111122 
TCOON,ioos:station:TCOON:031:1,2016-02-15T17:18:00Z,28.4073,-96.7122,0.461,1111122 
TCOON,ioos:station:TCOON:031:1,2016-02-15T18:18:00Z,28.4073,-96.7122,0.431,1111122 
TCOON,ioos:station:TCOON:031:1,2016-02-15T19:18:00Z,28.4073,-96.7122,0.42,1111122 
TCOON,ioos:station:TCOON:031:1,2016-02-15T20:18:00Z,28.4073,-96.7122,0.399,1111122 
TCOON,ioos:station:TCOON:031:1,2016-02-15T21:18:00Z,28.4073,-96.7122,0.408,1111122 
TCOON,ioos:station:TCOON:031:1,2016-02-15T22:18:00Z,28.4073,-96.7122,0.423,1111122 
TCOON,ioos:station:TCOON:031:1,2016-02-15T23:18:00Z,28.4073,-96.7122,0.444,1111122 
TCOON,ioos:station:TCOON:031:1,2016-02-16T00:18:00Z,28.4073,-96.7122,0.446,1111122 
TCOON,ioos:station:TCOON:031:1,2016-02-16T01:18:00Z,28.4073,-96.7122,0.436,1111122 
TCOON,ioos:station:TCOON:031:1,2016-02-16T02:18:00Z,28.4073,-96.7122,0.435,1111122 